Location: Unspecified
(0.0000°N, 0.0000°E)
Time: 20:09:31
(UTC+00:00)

DMSP 5D-2 F13 DEB - Pass Details

Date: 11 March 2026
Orbit: 780 x 797 km, 98.7° (Epoch: 11 April)

Event Time Altitude Azimuth Distance (km) Brightness Sun altitude
Rises 19:17:38 0° 172° (S) 3,265 ? -16.9°
Reaches altitude 10° 19:19:58 10° 174° (S) 2,337 ? -17.5°
Maximum altitude 19:25:05 70° 257° (WSW) 831 ? -18.8°
Drops below altitude 10° 19:30:13 10° 341° (NNW) 2,337 ? -20.0°
Sets 19:32:33 0° 343° (NNW) 3,265 ? -20.6°
